This is the latest recevied weather packets stored in our database for station/object SP8MDH-4. If no packets are shown the sender has not sent any weather packets the latest 10 day(s).
| Time | Temp. | Humidity | Pressure | Rain* | Wind** | Luminosity | Snow |
|---|---|---|---|---|---|---|---|
| 1777874096 | 23.89° C | 25% | 1016.6 hPa | - | - | - | - |
| 1777872596 | 23.89° C | 25% | 1016.4 hPa | - | - | - | - |
| 1777871096 | 23.89° C | 25% | 1016.4 hPa | - | - | - | - |
| 1777869596 | 23.89° C | 25% | 1016.3 hPa | - | - | - | - |
| 1777868096 | 23.89° C | 24% | 1016.2 hPa | - | - | - | - |
| 1777866596 | 23.89° C | 24% | 1016.2 hPa | - | - | - | - |
| 1777847095 | 24.44° C | 24% | 1016.4 hPa | - | - | - | - |
| 1777839594 | 26.11° C | 23% | 1016.4 hPa | - | - | - | - |
| 1777836594 | 26.11° C | 23% | 1016.5 hPa | - | - | - | - |
| 1777835094 | 26.11° C | 23% | 1016.5 hPa | - | - | - | - |
| 1777829094 | 26.67° C | 23% | 1016.1 hPa | - | - | - | - |
| 1777827594 | 26.67° C | 23% | 1016.2 hPa | - | - | - | - |
| 1777809593 | 26.11° C | 26% | 1018.7 hPa | - | - | - | - |
| 1777803593 | 25.56° C | 26% | 1019.7 hPa | - | - | - | - |
| 1777800592 | 25° C | 26% | 1020 hPa | - | - | - | - |
| 1777799092 | 24.44° C | 27% | 1020.3 hPa | - | - | - | - |
| 1777797592 | 24.44° C | 27% | 1020.6 hPa | - | - | - | - |
| 1777796092 | 23.89° C | 27% | 1020.5 hPa | - | - | - | - |
| 1777794592 | 23.89° C | 27% | 1020.6 hPa | - | - | - | - |
| 1777793092 | 23.33° C | 27% | 1020.6 hPa | - | - | - | - |
| 1777791592 | 23.33° C | 27% | 1020.6 hPa | - | - | - | - |
| 1777790092 | 23.33° C | 27% | 1020.5 hPa | - | - | - | - |
| 1777788592 | 22.78° C | 26% | 1020.6 hPa | - | - | - | - |
| 1777787091 | 22.78° C | 27% | 1020.5 hPa | - | - | - | - |
| 1777785591 | 22.78° C | 26% | 1020.5 hPa | - | - | - | - |
* Rain since midnight (hover to see other rain measurements)
** Current wind speed in m/s (hover to see current wind gust speed)